Content
SEND FEEDBACK

Daily
Averages
Monthly
Summary
United States of America

LAUGHLIN, NEVADA


Home > North America > United States > Nevada
Elevation: 1018 feet     Latitude: 35 10N     Longitude: 114 37W

WEATHER
 
SELECT A DAY
Number of Records: 181,909;   Date Range: 7/1/96 - 8/30/14
 
SHARE

PRINT THIS DATA

[ ← Previous Day ]
WEATHER ALMANAC - APRIL 21, 2013
[ Next Day → ]
[ °C ]   °F
Weather ElementAverageHighLow
Temperature77.8 °F93.2 °F (2:55 pm)57.2 °F (5:35 am)
Dewpoint18.8 °F28.4 °F (7:55 am)12.2 °F (6:35 pm)
Humidity12.5 %26 % (7:55 am)5 % (6:15 pm)
Barometer29.91 in30.02 in (7:35 am)29.80 in (6:35 pm)
Wind Speed6 mph18.4 mph (3:55 pm)
Wind Gust23 mph (3:55 pm)
Weather ElementAverage
Visibility10 mi
Wind DirectionESE (103.2 °)

Weather ElementTotal
Precipitation---
Cooling Degree Days10.2 (Base 65)
Growing Degree Days25.2 (Base 50)
Averaged from 71 records on April 21, 2013
WEATHER CONDITIONS BREAKOUT
WIND DIRECTION BREAKOUT
WEATHER BY HOUR - APRIL 21, 2013
[ °C ]   °F
Local TimeTemperatureDewpointHumidityBarometerVisibilityWind DirectionWind SpeedGust SpeedPrecipitationEventsConditions
12:35 AM68.0 °F17.6 °F15 %29.94 in10.0 miCalmClear
12:55 AM68.0 °F17.6 °F15 %29.94 in10.0 miCalmClear
1:15 AM68.0 °F17.6 °F15 %29.94 in10.0 miENE (60°)4.6 mphClear
1:35 AM66.2 °F17.6 °F15 %29.94 in10.0 miENE (60°)6.9 mphClear
1:55 AM66.2 °F17.6 °F15 %29.94 in10.0 miENE (60°)4.6 mphClear
2:15 AM64.4 °F19.4 °F18 %29.93 in10.0 miESE (110°)3.5 mphClear
2:35 AM66.2 °F17.6 °F15 %29.93 in10.0 miNE (40°)5.8 mphClear
2:55 AM66.2 °F17.6 °F15 %29.93 in10.0 miCalmClear
3:15 AM64.4 °F17.6 °F16 %29.93 in10.0 miCalmClear
3:35 AM62.6 °F19.4 °F19 %29.94 in10.0 miSouth (170°)5.8 mphClear
3:55 AM62.6 °F19.4 °F19 %29.94 in10.0 miCalmClear
4:15 AM60.8 °F23.0 °F23 %29.94 in10.0 miNNW (340°)3.5 mphClear
4:35 AM60.8 °F23.0 °F23 %29.95 in10.0 miCalmClear
4:55 AM60.8 °F19.4 °F20 %29.95 in10.0 miCalmClear
5:15 AM60.8 °F19.4 °F20 %29.95 in10.0 miCalmClear
5:35 AM57.2 °F19.4 °F23 %29.96 in10.0 miCalmClear
5:55 AM57.2 °F19.4 °F23 %29.97 in10.0 miCalmClear
6:15 AM59.0 °F19.4 °F22 %29.97 in10.0 miNNE (20°)3.5 mphClear
6:35 AM59.0 °F21.2 °F23 %29.98 in10.0 miCalmClear
6:55 AM59.0 °F19.4 °F22 %29.99 in10.0 miCalmClear
7:15 AM62.6 °F19.4 °F19 %30.01 in10.0 miCalmClear
7:35 AM62.6 °F24.8 °F24 %30.02 in10.0 miCalmClear
7:55 AM64.4 °F28.4 °F26 %30.01 in10.0 miCalmClear
8:15 AM66.2 °F26.6 °F23 %30.01 in10.0 miCalmClear
8:35 AM68.0 °F24.8 °F20 %30.02 in10.0 miCalmClear
8:55 AM68.0 °F24.8 °F20 %30.01 in10.0 miCalmClear
9:15 AM71.6 °F24.8 °F17 %30.01 in10.0 miCalmClear
9:35 AM73.4 °F23.0 °F15 %30.01 in10.0 miCalmClear
9:55 AM75.2 °F23.0 °F14 %30.01 in10.0 miNW (310°)3.5 mphClear
10:15 AM75.2 °F23.0 °F14 %30.01 in10.0 miNNW (340°)5.8 mphClear
10:35 AM78.8 °F23.0 °F13 %30.01 in10.0 miNNW (330°)4.6 mphClear
10:55 AM80.6 °F23.0 °F12 %30.00 in10.0 miCalmClear
11:15 AM82.4 °F19.4 °F10 %30.00 in10.0 miCalmClear
11:35 AM82.4 °F19.4 °F10 %29.99 in10.0 miCalmClear
11:55 AM84.2 °F19.4 °F9 %29.98 in10.0 miWSW (240°)3.5 mphClear
12:15 PM84.2 °F19.4 °F9 %29.96 in10.0 miSSW (210°)8.1 mphClear
12:35 PM86.0 °F19.4 °F9 %29.96 in10.0 miSouth (190°)6.9 mphClear
12:55 PM87.8 °F19.4 °F8 %29.95 in10.0 miSW (230°)4.6 mphClear
1:15 PM89.6 °F19.4 °F8 %29.94 in10.0 miWSW (240°)4.6 mphClear
1:35 PM89.6 °F19.4 °F8 %29.93 in10.0 miSW (220°)10.4 mphClear
1:55 PM91.4 °F17.6 °F7 %29.91 in10.0 miSSW (210°)11.5 mph16.1 mphClear
2:15 PM91.4 °F17.6 °F7 %29.91 in10.0 miSSW (210°)10.4 mph19.6 mphClear
2:35 PM91.4 °F15.8 °F6 %29.89 in10.0 miSSE (160°)10.4 mph20.7 mphClear
2:55 PM93.2 °F15.8 °F6 %29.88 in10.0 miSouth (170°)15.0 mphClear
3:15 PM93.2 °F15.8 °F6 %29.87 in10.0 miSW (220°)11.5 mph17.3 mphClear
3:35 PM93.2 °F15.8 °F6 %29.86 in10.0 miSouth (170°)10.4 mph19.6 mphClear
3:55 PM93.2 °F17.6 °F6 %29.84 in10.0 miSSE (160°)18.4 mph23.0 mphClear
4:15 PM93.2 °F17.6 °F6 %29.83 in10.0 miSSE (150°)16.1 mphClear
4:35 PM93.2 °F17.6 °F6 %29.82 in10.0 miSouth (170°)15.0 mph20.7 mphClear
4:55 PM93.2 °F17.6 °F6 %29.82 in10.0 miSSE (150°)16.1 mph20.7 mphClear
5:15 PM93.2 °F17.6 °F6 %29.81 in10.0 miSSE (160°)17.3 mphClear
5:35 PM93.2 °F15.8 °F6 %29.81 in10.0 miSouth (170°)13.8 mphClear
5:55 PM93.2 °F15.8 °F6 %29.81 in10.0 miSouth (170°)16.1 mph23.0 mphClear
6:15 PM93.2 °F14.0 °F5 %29.81 in10.0 miSouth (190°)16.1 mph19.6 mphClear
6:35 PM93.2 °F12.2 °F5 %29.80 in10.0 miSouth (170°)17.3 mphClear
6:55 PM91.4 °F14.0 °F6 %29.80 in10.0 miSSE (160°)15.0 mphClear
7:15 PM91.4 °F12.2 °F5 %29.80 in10.0 miSSE (160°)13.8 mphClear
7:35 PM89.6 °F12.2 °F6 %29.80 in10.0 miSSE (160°)12.7 mphClear
7:55 PM89.6 °F14.0 °F6 %29.81 in10.0 miSSE (160°)12.7 mphClear
8:15 PM86.0 °F14.0 °F7 %29.82 in10.0 miSE (140°)9.2 mphClear
8:35 PM86.0 °F15.8 °F7 %29.83 in10.0 miSE (140°)12.7 mphClear
8:55 PM86.0 °F15.8 °F7 %29.83 in10.0 miSE (140°)10.4 mphClear
9:15 PM84.2 °F17.6 °F8 %29.85 in10.0 miCalmClear
9:35 PM84.2 °F17.6 °F8 %29.85 in10.0 miSSE (160°)13.8 mphClear
9:55 PM86.0 °F17.6 °F8 %29.85 in10.0 miSSE (150°)12.7 mphClear
10:15 PM84.2 °F19.4 °F9 %29.85 in10.0 miSSE (160°)10.4 mphClear
10:35 PM80.6 °F19.4 °F10 %29.86 in10.0 miCalmClear
10:55 PM78.8 °F19.4 °F11 %29.85 in10.0 miCalmClear
11:15 PM75.2 °F19.4 °F12 %29.85 in10.0 miCalmClear
11:35 PM73.4 °F19.4 °F13 %29.86 in10.0 miCalmClear
11:55 PM73.4 °F19.4 °F13 %29.86 in10.0 miCalmClear
Hourly data recorded from KIFP, located miles away from Laughlin, Nevada







STORIES FROM OUR PARTNERS